Versailles, OH

8:02 PM EST on December 15, 2017 (GMT -0500)
Darke County

Weather History for KVES - January, 2013

Change the Weather History Date:

Thursday, January 3, 2013

  Actual Average (KDAY) Record (KDAY)
Temperature  
Mean Temperature 19 °F -  
Max Temperature 30 °F 35 °F 65 °F (1897)
Min Temperature 8 °F 21 °F -17 °F (1904)
Degree Days  
Heating Degree Days 46    
Moisture  
Dew Point 14 °F    
Average Humidity 73    
Maximum Humidity 85    
Minimum Humidity 49    
Precipitation  
Precipitation 0.00 in - - ()
Sea Level Pressure  
Sea Level Pressure 30.20 in    
Wind  
Wind Speed 7 mph (WSW)    
Max Wind Speed 22 mph    
Max Gust Speed 32 mph    
Visibility 10 miles    
Events      
Averages and records for this station are not official NWS values.
T = Trace of Precipitation, MM = Missing Value Source: NWS Daily Summary

Daily Weather History Graph

Daily Weather History Graph

Search for Another Location

Airport or City:

Trip Planner

Search our weather history database for the weather conditions in past years. The results will help you decide how hot, cold, wet, or windy it might be!

Date:

Astronomy

Jan. 03, 2013 Rise Set
Actual Time 8:00 AM EST 5:25 PM EST
Civil Twilight 7:30 AM EST 5:55 PM EST
Nautical Twilight 6:56 AM EST 6:29 PM EST
Astronomical Twilight 6:23 AM EST 7:02 PM EST
Moon No Moon Rise 11:11 AM EST (1/3)
Length of Visible Light 10h 25m
Length of Day
9h 24m
Waning Gibbous, 65% of the Moon is Illuminated
Jan 3
Waning Gibbous
Jan 4
Last Quarter
Jan 11
New
Jan 18
First Quarter
Jan 26
Full

Hourly Weather History & Observations

Time (EST) Temp. Windchill Dew Point Humidity Pressure Visibility Wind Dir Wind Speed Gust Speed Precip Events Conditions
12:15 AM 8.6 °F 0.1 °F 3.2 °F 79% 30.18 in 10.0 mi SSW 4.6 mph - N/A   Clear
12:35 AM 8.6 °F 2.0 °F 5.0 °F 85% 30.19 in 7.0 mi SSW 3.5 mph - N/A   Clear
12:55 AM 8.6 °F 2.0 °F 3.2 °F 79% 30.18 in 10.0 mi SSW 3.5 mph - N/A   Clear
1:15 AM 8.6 °F 2.0 °F 1.4 °F 73% 30.18 in 10.0 mi SSW 3.5 mph - N/A   Clear
1:35 AM 10.4 °F 2.2 °F 3.2 °F 73% 30.18 in 10.0 mi SSW 4.6 mph - N/A   Clear
1:55 AM 10.4 °F 0.8 °F 1.4 °F 67% 30.17 in 10.0 mi SW 5.8 mph - N/A   Clear
2:15 AM 12.2 °F 2.9 °F 3.2 °F 67% 30.17 in 10.0 mi SSW 5.8 mph - N/A   Clear
2:35 AM 12.2 °F 4.3 °F 3.2 °F 67% 30.17 in 10.0 mi SW 4.6 mph - N/A   Clear
2:55 AM 12.2 °F 4.3 °F 3.2 °F 67% 30.17 in 10.0 mi SW 4.6 mph - N/A   Clear
3:15 AM 12.2 °F 4.3 °F 3.2 °F 67% 30.16 in 10.0 mi SSW 4.6 mph - N/A   Clear
3:35 AM 10.4 °F 2.2 °F 3.2 °F 73% 30.17 in 10.0 mi SW 4.6 mph - N/A   Clear
3:55 AM 10.4 °F 2.2 °F 5.0 °F 79% 30.17 in 10.0 mi SW 4.6 mph - N/A   Clear
4:15 AM 8.6 °F 2.0 °F 3.2 °F 79% 30.17 in 10.0 mi WSW 3.5 mph - N/A   Clear
4:35 AM 10.4 °F 2.2 °F 5.0 °F 79% 30.16 in 10.0 mi SSW 4.6 mph - N/A   Clear
4:55 AM 10.4 °F 0.8 °F 5.0 °F 79% 30.16 in 10.0 mi SW 5.8 mph - N/A   Clear
5:15 AM 12.2 °F 2.9 °F 5.0 °F 73% 30.16 in 10.0 mi SW 5.8 mph - N/A   Clear
5:35 AM 10.4 °F -0.4 °F 3.2 °F 73% 30.16 in 10.0 mi SW 6.9 mph - N/A   Clear
5:55 AM 12.2 °F 2.9 °F 3.2 °F 67% 30.17 in 10.0 mi SW 5.8 mph - N/A   Clear
6:15 AM 12.2 °F 4.3 °F 3.2 °F 67% 30.17 in 10.0 mi SW 4.6 mph - N/A   Clear
6:35 AM 12.2 °F 2.9 °F 3.2 °F 67% 30.17 in 10.0 mi SW 5.8 mph - N/A   Clear
6:55 AM 12.2 °F 2.9 °F 3.2 °F 67% 30.17 in 10.0 mi SW 5.8 mph - N/A   Clear
7:15 AM 14.0 °F 5.1 °F 3.2 °F 62% 30.17 in 10.0 mi SW 5.8 mph - N/A   Clear
7:35 AM 14.0 °F 8.2 °F 3.2 °F 62% 30.17 in 10.0 mi SW 3.5 mph - N/A   Clear
8:15 AM 15.8 °F 6.1 °F 3.2 °F 58% 30.17 in 10.0 mi SW 6.9 mph - N/A   Clear
8:35 AM 17.6 °F 5.7 °F 3.2 °F 53% 30.17 in 10.0 mi SW 10.4 mph - N/A   Clear
8:55 AM 19.4 °F 9.5 °F 3.2 °F 49% 30.16 in 10.0 mi SW 8.1 mph - N/A   Clear
9:15 AM 19.4 °F 7.2 °F 5.0 °F 54% 30.17 in 10.0 mi WSW 11.5 mph - N/A   Clear
9:35 AM 21.2 °F 8.9 °F 8.6 °F 58% 30.17 in 10.0 mi SW 12.7 mph - N/A   Clear
9:55 AM 21.2 °F 12.6 °F 8.6 °F 58% 30.17 in 10.0 mi SW 6.9 mph - N/A   Clear
10:15 AM 21.2 °F 10.1 °F 10.4 °F 63% 30.19 in 10.0 mi WSW 10.4 mph 16.1 mph N/A   Clear
10:35 AM 21.2 °F 9.5 °F 10.4 °F 63% 30.19 in 10.0 mi WSW 11.5 mph - N/A   Clear
10:55 AM 21.2 °F 10.1 °F 12.2 °F 68% 30.19 in 10.0 mi WSW 10.4 mph - N/A   Clear
11:15 AM 23.0 °F 13.1 °F 12.2 °F 63% 30.19 in 10.0 mi West 9.2 mph - N/A   Scattered Clouds
11:35 AM 24.8 °F 14.6 °F 14.0 °F 64% 30.19 in 10.0 mi West 10.4 mph - N/A   Overcast
11:55 AM 23.0 °F 11.7 °F 14.0 °F 68% 30.20 in 10.0 mi West 11.5 mph - N/A   Overcast
12:15 PM 23.0 °F 12.4 °F 14.0 °F 68% 30.18 in 10.0 mi WSW 10.4 mph - N/A   Overcast
12:35 PM 24.8 °F 14.6 °F 17.6 °F 74% 30.18 in 10.0 mi West 10.4 mph - N/A   Overcast
12:55 PM 26.6 °F 16.8 °F 17.6 °F 69% 30.18 in 10.0 mi West 10.4 mph - N/A   Overcast
1:15 PM 26.6 °F 16.8 °F 19.4 °F 74% 30.17 in 10.0 mi West 10.4 mph - N/A   Overcast
1:35 PM 28.4 °F 17.5 °F 21.2 °F 74% 30.17 in 10.0 mi West 13.8 mph 19.6 mph N/A   Overcast
1:55 PM 28.4 °F 17.0 °F 23.0 °F 80% 30.17 in 10.0 mi West 15.0 mph 21.9 mph N/A   Overcast
2:15 PM 28.4 °F 18.0 °F 23.0 °F 80% 30.17 in 10.0 mi WSW 12.7 mph 21.9 mph N/A   Overcast
2:35 PM 30.2 °F 19.8 °F 23.0 °F 75% 30.16 in 10.0 mi West 13.8 mph - N/A   Mostly Cloudy
2:55 PM 30.2 °F 20.8 °F 23.0 °F 75% 30.17 in 10.0 mi West 11.5 mph - N/A   Scattered Clouds
3:15 PM 30.2 °F 19.8 °F 23.0 °F 75% 30.18 in 10.0 mi West 13.8 mph - N/A   Mostly Cloudy
3:35 PM 30.2 °F 20.8 °F 23.0 °F 75% 30.19 in 10.0 mi West 11.5 mph - N/A   Overcast
3:55 PM 30.2 °F 20.2 °F 23.0 °F 75% 30.19 in 10.0 mi West 12.7 mph - N/A   Overcast
4:15 PM 28.4 °F 19.1 °F 23.0 °F 80% 30.20 in 10.0 mi West 10.4 mph - N/A   Overcast
4:35 PM 28.4 °F 20.4 °F 23.0 °F 80% 30.21 in 10.0 mi WSW 8.1 mph - N/A   Overcast
4:55 PM 28.4 °F 21.2 °F 23.0 °F 80% 30.21 in 10.0 mi WSW 6.9 mph - N/A   Overcast
5:15 PM 28.4 °F 20.4 °F 23.0 °F 80% 30.21 in 10.0 mi WSW 8.1 mph - N/A   Overcast
5:55 PM 28.4 °F 22.2 °F 23.0 °F 80% 30.22 in 7.0 mi West 5.8 mph - N/A   Overcast
6:15 PM 28.4 °F 19.1 °F 23.0 °F 80% 30.23 in 10.0 mi West 10.4 mph - N/A   Overcast
6:35 PM 28.4 °F 18.5 °F 23.0 °F 80% 30.23 in 10.0 mi West 11.5 mph 16.1 mph N/A   Overcast
6:55 PM 28.4 °F 19.7 °F 23.0 °F 80% 30.24 in 10.0 mi West 9.2 mph - N/A   Overcast
7:15 PM 28.4 °F 18.5 °F 23.0 °F 80% 30.24 in 10.0 mi West 11.5 mph 16.1 mph N/A   Overcast
7:35 PM 28.4 °F 18.5 °F 23.0 °F 80% 30.24 in 10.0 mi West 11.5 mph - N/A   Overcast
7:55 PM 28.4 °F 17.0 °F 23.0 °F 80% 30.24 in 10.0 mi WNW 15.0 mph 23.0 mph N/A   Overcast
8:15 PM 28.4 °F 18.5 °F 23.0 °F 80% 30.25 in 10.0 mi West 11.5 mph - N/A   Overcast
8:35 PM 28.4 °F 18.5 °F 23.0 °F 80% 30.25 in 10.0 mi West 11.5 mph - N/A   Overcast
8:55 PM 28.4 °F 19.7 °F 23.0 °F 80% 30.24 in 10.0 mi West 9.2 mph - N/A   Overcast
9:15 PM 28.4 °F 18.5 °F 23.0 °F 80% 30.25 in 10.0 mi West 11.5 mph - N/A   Overcast
9:35 PM 28.4 °F 18.0 °F 23.0 °F 80% 30.25 in 10.0 mi West 12.7 mph 21.9 mph N/A   Overcast
9:55 PM 30.2 °F 17.1 °F 23.0 °F 75% 30.25 in 10.0 mi WNW 21.9 mph 32.2 mph N/A   Overcast
10:15 PM 30.2 °F 19.8 °F 23.0 °F 75% 30.25 in 10.0 mi West 13.8 mph 24.2 mph N/A   Overcast
10:35 PM 28.4 °F 18.0 °F 23.0 °F 80% 30.25 in 10.0 mi West 12.7 mph - N/A   Overcast
10:55 PM 28.4 °F 16.6 °F 23.0 °F 80% 30.26 in 10.0 mi West 16.1 mph 24.2 mph N/A   Overcast
11:15 PM 28.4 °F 17.5 °F 21.2 °F 74% 30.25 in 10.0 mi WNW 13.8 mph 18.4 mph N/A   Overcast
11:35 PM 28.4 °F 18.0 °F 21.2 °F 74% 30.25 in 10.0 mi WNW 12.7 mph 17.3 mph N/A   Overcast
11:55 PM 28.4 °F 17.0 °F 21.2 °F 74% 30.25 in 10.0 mi WNW 15.0 mph 20.7 mph N/A   Overcast